• MPC Preparation (Info)

  • MPEC 2019-N151 : 2019 NL6

    The following Minor Planet Electronic Circular may be linked-to from your own Web pages, but must not otherwise be redistributed electronically.

    A form allowing access to any MPEC is at the bottom of this page.


    Read MPEC 2019-N150 Read MPEC 2019-N152


    M.P.E.C. 2019-N151                                Issued 2019 July 12, 20:52 UT  
    
         The Minor Planet Electronic Circulars contain information on unusual
             minor planets and routine data on comets.  They are published
        on behalf of Division F of the International Astronomical Union by the
              Minor Planet Center, Smithsonian Astrophysical Observatory,
                              Cambridge, MA 02138, U.S.A.
    
                 Prepared using the Tamkin Foundation Computer Network
    
                                  MPC@CFA.HARVARD.EDU
                URL https://www.minorplanetcenter.net/    ISSN 1523-6714
    
                                    2019 NL6                                 
    
    Observations:
         K19N06L*^C2019 07 10.43939918 43 56.430+50 28 35.46         21.40GVEN151568
         K19N06L ^C2019 07 10.44127618 43 55.963+50 28 33.07         21.31GVEN151568
         K19N06L ^C2019 07 10.44246618 43 55.651+50 28 31.32         21.66GVEN151568
         K19N06L ^C2019 07 10.44364918 43 55.341+50 28 29.56         21.40GVEN151568
         K19N06L ^C2019 07 11.43392518 40 03.774+50 05 27.54         21.57GVEN151568
         K19N06L ^C2019 07 11.43538518 40 03.413+50 05 25.40         21.56GVEN151568
         K19N06L ^C2019 07 11.43656718 40 03.118+50 05 23.69         21.68GVEN151568
         K19N06L  C2019 07 12.34811018 36 35.38 +49 43 02.9          21.7 GVEN151H01
         K19N06L  C2019 07 12.35126318 36 34.60 +49 42 57.8          21.1 GVEN151H01
         K19N06L  C2019 07 12.36924018 36 30.33 +49 42 30.0          21.2 GVEN151H01
         K19N06L  C2019 07 12.37545318 36 28.85 +49 42 20.1          21.9 GVEN151H01
         K19N06L ^C2019 07 12.51043418 35 58.509+49 39 04.03         21.65GVEN151568
         K19N06L ^C2019 07 12.51161818 35 58.225+49 39 02.12         21.71GVEN151568
         K19N06L ^C2019 07 12.51279818 35 57.951+49 39 00.27         21.61GVEN151568
    
    Observer details:
    568 Mauna Kea.  Observers R. Wainscoat, C. Wipper, T. Burdullis.  
        Measurers R. Weryk, R. Wainscoat.  
        3.6-m Canada-France-Hawaii Telescope + CCD.
    H01 Magdalena Ridge Observatory, Socorro.  Observers W. H. Ryan, E. V. Ryan.  
        Measurer W. H. Ryan.  2.4-m f/8.9 Ritchey-Chretien + CCD.
    
    Orbital elements:
    2019 NL6                                                 Earth MOID = 0.0942 AU
    Epoch 2019 Apr. 27.0 TT = JDT 2458600.5                 MPC
    M  56.25145              (2000.0)            P               Q
    n   1.18126462     Peri.  281.08356     -0.60753242     -0.78616831
    a   0.8862806      Node   207.33999     +0.79038302     -0.58421209
    e   0.3163264      Incl.   14.28598     +0.07873396     -0.20158279
    P   0.83           H   22.1           G   0.15           U   9
    Residuals in seconds of arc
    190710 568  0.0   0.1-    190711 568  0.0   0.0     190712 H01  0.2-  0.1-
    190710 568  0.1+  0.1+    190711 568  0.0   0.0     190712 568  0.0   0.0
    190710 568  0.0   0.0     190712 H01  0.2+  0.1+    190712 568  0.0   0.0
    190710 568  0.1-  0.1-    190712 H01  0.1-  0.1-    190712 568  0.0   0.0
    190711 568  0.0   0.0     190712 H01  0.1-  0.1+
    
    Ephemeris:
    2019 NL6                 a,e,i = 0.89, 0.32, 14                  q = 0.6059
    Date    TT    R. A. (2000) Decl.     Delta      r    Elong.  Phase     V
    2019 06 12    21 01 41.0 +51 55 04   0.2511  1.0486    90.6    75.5    21.8
    ...
    2019 06 27    19 45 42.1 +53 32 00   0.2715  1.1009   101.0    65.0    21.8
    ...
    2019 07 05    19 07 06.1 +52 13 02   0.2820  1.1227   104.9    61.1    21.8
    ...
    2019 07 11    18 41 45.1 +50 15 28   0.2901  1.1362   107.1    58.8    21.8
    2019 07 12    18 37 55.1 +49 51 33   0.2915  1.1382   107.4    58.5    21.8
    2019 07 13    18 34 12.4 +49 26 32   0.2929  1.1402   107.7    58.2    21.8
    ...
    2019 07 19    18 14 29.5 +46 35 12   0.3017  1.1504   109.0    56.7    21.9
    ...
    2019 07 27    17 54 57.0 +42 01 39   0.3144  1.1601   109.7    55.5    21.9
    ...
    2019 08 11    17 36 35.4 +32 12 18   0.3419  1.1666   108.2    55.6    22.1
    
    A. U. Tomatic                (C) Copyright 2019 MPC           M.P.E.C. 2019-N151
    


    Read MPEC 2019-N150 Read MPEC 2019-N152


    MPEC number:

    Enter an MPEC number in one of the following forms:

    • 1997-B01 (the full form)
    • J97B01 (the packed version of the full form)
    • B01 (the abbreviated form)